date,time,SUV Intensity [MED/Hr],UV Index,Daily total [MED],Since Last [MED]
25/05/2022,00:13:34,0.000,0.0,0.0,0.0
25/05/2022,00:22:33,0.000,0.0,0.0,0.0
25/05/2022,00:30:33,0.001,0.0,0.0,0.0
25/05/2022,00:38:33,0.000,0.0,0.0,0.0
25/05/2022,00:46:32,0.000,0.0,0.0,0.0
25/05/2022,00:55:41,0.000,0.0,0.0,0.0
25/05/2022,01:02:32,0.001,0.0,0.0,0.0
25/05/2022,01:10:32,0.000,0.0,0.0,0.0
25/05/2022,01:19:34,0.001,0.0,0.0,0.0
25/05/2022,01:28:33,0.001,0.0,0.0,0.0
25/05/2022,01:37:34,0.000,0.0,0.0,0.0
25/05/2022,01:44:32,0.000,0.0,0.0,0.0
25/05/2022,01:52:41,0.000,0.0,0.0,0.0
25/05/2022,02:00:32,0.001,0.0,0.0,0.0
25/05/2022,02:10:34,0.000,0.0,0.0,0.0
25/05/2022,02:18:33,-0.000,0.0,0.0,0.0
25/05/2022,02:27:34,-0.001,0.0,0.0,0.0
25/05/2022,02:34:40,0.000,0.0,0.0,0.0
25/05/2022,02:40:31,-0.000,0.0,0.0,0.0
25/05/2022,02:47:34,-0.001,0.0,0.0,0.0
25/05/2022,02:53:32,0.001,0.0,0.0,0.0
25/05/2022,03:00:32,0.000,0.0,0.0,0.0
25/05/2022,03:06:32,-0.000,0.0,0.0,0.0
25/05/2022,03:13:32,0.001,0.0,0.0,0.0
25/05/2022,03:19:31,0.000,0.0,0.0,0.0
25/05/2022,03:27:33,0.001,0.0,0.0,0.0
25/05/2022,03:36:34,0.001,0.0,0.0,0.0
25/05/2022,03:42:31,0.000,0.0,0.0,0.0
25/05/2022,03:49:32,0.001,0.0,0.0,0.0
25/05/2022,03:55:33,0.002,0.0,0.0,0.0
25/05/2022,04:02:32,0.001,0.0,0.0,0.0
25/05/2022,04:09:33,0.003,0.0,0.0,0.0
25/05/2022,04:15:31,0.004,0.0,0.0,0.0
25/05/2022,04:22:33,0.005,0.0,0.0,0.0
25/05/2022,04:28:32,0.006,0.0,0.0,0.0
25/05/2022,04:35:32,0.008,0.0,0.001,0.001
25/05/2022,04:42:32,0.010,0.0,0.002,0.001
25/05/2022,04:48:32,0.011,0.0,0.003,0.001
25/05/2022,04:55:34,0.012,0.0,0.004,0.001
25/05/2022,05:02:32,0.020,0.0,0.006,0.002
25/05/2022,05:10:34,0.023,0.0,0.009,0.003
25/05/2022,05:16:31,0.026,0.0,0.012,0.003
25/05/2022,05:23:33,0.030,0.0,0.015,0.003
25/05/2022,05:29:40,0.034,0.0,0.018,0.003
25/05/2022,05:36:32,0.042,0.0,0.022,0.004
25/05/2022,05:42:31,0.044,0.0,0.027,0.005
25/05/2022,05:49:33,0.051,0.0,0.032,0.005
25/05/2022,05:55:32,0.049,0.0,0.037,0.005
25/05/2022,06:02:32,0.053,0.0,0.043,0.006
25/05/2022,06:08:42,0.049,0.0,0.049,0.006
25/05/2022,06:14:40,0.062,0.0,0.054,0.005
25/05/2022,06:21:32,0.076,0.0,0.062,0.008
25/05/2022,06:27:47,0.097,0.0,0.071,0.009
25/05/2022,06:34:33,0.089,0.0,0.082,0.011
25/05/2022,06:40:31,0.090,0.0,0.091,0.009
25/05/2022,06:47:33,0.105,0.0,0.102,0.011
25/05/2022,06:53:32,0.124,0.0,0.113,0.011
25/05/2022,06:59:31,0.139,0.0,0.126,0.013
25/05/2022,07:06:32,0.174,0.0,0.144,0.018
25/05/2022,07:12:32,0.185,0.0,0.162,0.018
25/05/2022,07:19:32,0.232,1.0,0.186,0.024
25/05/2022,07:25:32,0.261,1.0,0.211,0.025
25/05/2022,07:32:33,0.261,1.0,0.242,0.031
25/05/2022,07:38:32,0.342,1.0,0.271,0.029
25/05/2022,07:45:33,0.349,1.0,0.313,0.042
25/05/2022,07:51:32,0.461,1.0,0.353,0.04
25/05/2022,07:57:31,0.391,1.0,0.396,0.043
25/05/2022,08:04:33,0.360,1.0,0.439,0.043
25/05/2022,08:11:32,0.391,1.0,0.485,0.046
25/05/2022,08:18:33,0.280,1.0,0.522,0.037
25/05/2022,08:25:32,0.298,1.0,0.555,0.033
25/05/2022,08:31:32,0.334,1.0,0.59,0.035
25/05/2022,08:38:33,0.214,0.0,0.624,0.034
25/05/2022,08:44:41,0.269,1.0,0.65,0.026
25/05/2022,08:51:32,0.290,1.0,0.686,0.036
25/05/2022,08:57:32,0.337,1.0,0.721,0.035
25/05/2022,09:04:33,0.451,1.0,0.774,0.053
25/05/2022,09:10:32,0.452,1.0,0.819,0.045
25/05/2022,09:17:33,0.687,2.0,0.883,0.064
25/05/2022,09:23:40,0.789,2.0,0.958,0.075
25/05/2022,09:30:33,1.221,3.0,1.064,0.106
25/05/2022,09:36:32,1.094,3.0,1.187,0.123
25/05/2022,09:43:32,0.971,2.0,1.301,0.114
25/05/2022,09:49:32,0.995,2.0,1.402,0.101
25/05/2022,09:56:41,0.729,2.0,1.503,0.101
25/05/2022,10:03:33,0.646,1.0,1.587,0.084
25/05/2022,10:10:41,0.491,1.0,1.657,0.07
25/05/2022,10:16:32,0.385,1.0,1.704,0.047
25/05/2022,10:23:33,0.585,1.0,1.765,0.061
25/05/2022,10:29:40,1.016,2.0,1.834,0.069
25/05/2022,10:36:33,0.817,2.0,1.941,0.107
25/05/2022,10:43:33,0.717,2.0,2.024,0.083
25/05/2022,10:49:32,0.611,1.0,2.089,0.065
25/05/2022,10:56:33,0.616,1.0,2.152,0.063
25/05/2022,11:02:33,0.502,1.0,2.21,0.058
25/05/2022,11:09:33,0.446,1.0,2.265,0.055
25/05/2022,11:15:32,0.516,1.0,2.316,0.051
25/05/2022,13:19:17,1.062,2.0,4.623,2.307
25/05/2022,13:20:31,1.501,3.0,4.648,0.025
25/05/2022,13:21:28,1.604,4.0,4.671,0.023
25/05/2022,13:22:29,1.568,4.0,4.699,0.028
25/05/2022,13:23:29,1.538,4.0,4.726,0.027
25/05/2022,13:24:37,1.404,3.0,4.761,0.035
25/05/2022,13:26:30,1.209,3.0,4.801,0.04
25/05/2022,13:27:37,1.207,3.0,4.824,0.023
25/05/2022,13:28:28,1.215,3.0,4.841,0.017
25/05/2022,13:29:45,1.276,3.0,4.868,0.027
25/05/2022,13:31:29,1.148,3.0,4.902,0.034
25/05/2022,13:32:30,1.204,3.0,4.925,0.023
25/05/2022,13:33:28,0.983,2.0,4.943,0.018
25/05/2022,13:34:16,0.968,2.0,4.955,0.012
25/05/2022,13:35:30,1.118,3.0,4.978,0.023
25/05/2022,13:36:29,0.975,2.0,4.995,0.017
25/05/2022,13:37:28,0.943,2.0,5.01,0.015
25/05/2022,13:38:29,1.031,2.0,5.027,0.017
25/05/2022,13:39:29,1.238,3.0,5.045,0.018
25/05/2022,13:40:38,1.449,3.0,5.072,0.027
25/05/2022,13:41:29,1.368,3.0,5.092,0.02
25/05/2022,13:42:28,1.291,3.0,5.114,0.022
25/05/2022,13:43:37,1.144,3.0,5.137,0.023
25/05/2022,13:45:29,1.076,2.0,5.171,0.034
25/05/2022,13:46:29,1.155,3.0,5.189,0.018
25/05/2022,13:47:31,1.184,3.0,5.21,0.021
25/05/2022,13:48:29,1.115,3.0,5.228,0.018
25/05/2022,13:49:29,0.955,2.0,5.246,0.018
25/05/2022,13:50:29,0.904,2.0,5.261,0.015
25/05/2022,13:51:29,0.793,2.0,5.276,0.015
25/05/2022,13:52:29,0.768,2.0,5.288,0.012
25/05/2022,13:53:28,0.921,2.0,5.302,0.014
25/05/2022,13:54:28,1.073,2.0,5.318,0.016
25/05/2022,13:55:29,1.985,5.0,5.343,0.025
25/05/2022,13:56:37,1.476,3.0,5.378,0.035
25/05/2022,13:58:29,1.338,3.0,5.422,0.044
25/05/2022,13:59:28,1.250,3.0,5.443,0.021
25/05/2022,14:00:29,1.245,3.0,5.464,0.021
25/05/2022,14:01:36,1.296,3.0,5.488,0.024
25/05/2022,14:02:36,1.255,3.0,5.51,0.022
25/05/2022,14:03:28,1.248,3.0,5.527,0.017
25/05/2022,14:04:29,1.271,3.0,5.55,0.023
25/05/2022,14:05:28,1.476,3.0,5.571,0.021
25/05/2022,14:06:29,1.325,3.0,5.594,0.023
25/05/2022,14:07:29,1.173,3.0,5.614,0.02
25/05/2022,14:08:29,1.474,3.0,5.636,0.022
25/05/2022,14:09:37,1.211,3.0,5.661,0.025
25/05/2022,14:10:28,1.208,3.0,5.679,0.018
25/05/2022,14:11:29,1.247,3.0,5.7,0.021
25/05/2022,14:12:37,1.540,4.0,5.724,0.024
25/05/2022,14:13:29,1.185,3.0,5.742,0.018
25/05/2022,14:14:29,1.212,3.0,5.763,0.021
25/05/2022,14:15:37,1.227,3.0,5.785,0.022
25/05/2022,14:16:28,1.252,3.0,5.807,0.022
25/05/2022,14:17:28,1.143,3.0,5.827,0.02
25/05/2022,14:18:29,1.205,3.0,5.846,0.019
25/05/2022,14:19:29,1.583,4.0,5.868,0.022
25/05/2022,14:20:28,1.115,3.0,5.888,0.02
25/05/2022,14:21:29,1.121,3.0,5.907,0.019
25/05/2022,14:22:29,1.165,3.0,5.926,0.019
25/05/2022,14:23:29,1.276,3.0,5.946,0.02
25/05/2022,14:24:29,1.151,3.0,5.967,0.021
25/05/2022,14:25:29,1.223,3.0,5.987,0.02
25/05/2022,14:26:29,1.184,3.0,6.008,0.021
25/05/2022,14:27:29,1.085,2.0,6.027,0.019
25/05/2022,14:28:37,1.420,3.0,6.052,0.025
25/05/2022,14:30:30,0.943,2.0,6.09,0.038
25/05/2022,14:31:29,0.860,2.0,6.106,0.016
25/05/2022,14:32:29,0.891,2.0,6.12,0.014
25/05/2022,14:33:29,1.668,4.0,6.139,0.019
25/05/2022,14:34:29,1.641,4.0,6.167,0.028
25/05/2022,14:35:29,1.747,4.0,6.195,0.028
25/05/2022,14:36:29,0.956,2.0,6.221,0.026
25/05/2022,14:37:29,0.821,2.0,6.236,0.015
25/05/2022,14:38:29,0.789,2.0,6.249,0.013
25/05/2022,14:39:29,1.573,4.0,6.266,0.017
25/05/2022,14:40:29,0.926,2.0,6.29,0.024
25/05/2022,14:41:38,0.873,2.0,6.307,0.017
25/05/2022,14:43:30,1.042,2.0,6.343,0.036
25/05/2022,14:44:28,0.966,2.0,6.359,0.016
25/05/2022,14:45:38,0.975,2.0,6.379,0.02
25/05/2022,14:47:29,0.893,2.0,6.409,0.03
25/05/2022,14:48:29,1.217,3.0,6.427,0.018
25/05/2022,14:49:29,0.915,2.0,6.443,0.016
25/05/2022,14:50:29,1.569,4.0,6.464,0.021
25/05/2022,14:51:29,1.491,3.0,6.49,0.026
25/05/2022,14:52:29,0.901,2.0,6.506,0.016
25/05/2022,14:53:28,0.832,2.0,6.521,0.015
25/05/2022,14:54:37,0.743,2.0,6.536,0.015
25/05/2022,14:56:29,0.976,2.0,6.567,0.031
25/05/2022,14:57:29,1.300,3.0,6.583,0.016
25/05/2022,14:58:28,0.818,2.0,6.602,0.019
25/05/2022,14:59:29,0.861,2.0,6.616,0.014
25/05/2022,15:00:29,0.809,2.0,6.63,0.014
25/05/2022,15:01:29,0.733,2.0,6.642,0.012
25/05/2022,15:02:29,0.651,1.0,6.654,0.012
25/05/2022,15:03:28,0.623,1.0,6.664,0.01
25/05/2022,15:04:29,0.604,1.0,6.675,0.011
25/05/2022,15:05:29,0.599,1.0,6.685,0.01
25/05/2022,15:06:29,0.734,2.0,6.696,0.011
25/05/2022,15:07:29,0.750,2.0,6.709,0.013
25/05/2022,15:08:29,0.817,2.0,6.724,0.015
25/05/2022,15:09:37,0.809,2.0,6.739,0.015
25/05/2022,15:11:30,0.829,2.0,6.764,0.025
25/05/2022,15:12:29,1.013,2.0,6.779,0.015
25/05/2022,15:13:28,0.992,2.0,6.794,0.015
25/05/2022,15:14:28,0.949,2.0,6.813,0.019
25/05/2022,15:15:29,0.953,2.0,6.831,0.018
25/05/2022,15:16:29,0.807,2.0,6.846,0.015
25/05/2022,15:17:28,0.891,2.0,6.859,0.013
25/05/2022,15:18:29,0.804,2.0,6.873,0.014
25/05/2022,15:19:29,0.875,2.0,6.887,0.014
25/05/2022,15:20:29,0.861,2.0,6.901,0.014
25/05/2022,15:21:29,0.834,2.0,6.916,0.015
25/05/2022,15:22:29,0.817,2.0,6.93,0.014
25/05/2022,15:23:29,0.806,2.0,6.944,0.014
25/05/2022,15:24:29,0.804,2.0,6.957,0.013
25/05/2022,15:25:29,0.947,2.0,6.973,0.016
25/05/2022,15:26:30,1.298,3.0,6.993,0.02
25/05/2022,15:27:29,1.075,2.0,7.012,0.019
25/05/2022,15:28:29,1.061,2.0,7.033,0.021
25/05/2022,15:29:28,0.783,2.0,7.047,0.014
25/05/2022,15:30:29,0.775,2.0,7.059,0.012
25/05/2022,15:31:29,0.786,2.0,7.073,0.014
25/05/2022,15:32:29,0.834,2.0,7.086,0.013
25/05/2022,15:33:29,1.158,3.0,7.102,0.016
25/05/2022,15:34:29,1.164,3.0,7.119,0.017
25/05/2022,15:35:28,1.148,3.0,7.138,0.019
25/05/2022,15:36:29,0.758,2.0,7.155,0.017
25/05/2022,15:37:29,1.036,2.0,7.172,0.017
25/05/2022,15:38:29,1.153,3.0,7.191,0.019
25/05/2022,15:39:29,1.093,3.0,7.208,0.017
25/05/2022,15:40:29,1.096,3.0,7.227,0.019
25/05/2022,15:41:37,1.010,2.0,7.244,0.017
25/05/2022,15:43:29,0.789,2.0,7.275,0.031
25/05/2022,15:44:29,0.729,2.0,7.289,0.014
25/05/2022,15:45:29,0.869,2.0,7.303,0.014
25/05/2022,15:46:20,0.894,2.0,7.316,0.013
25/05/2022,15:47:30,0.944,2.0,7.333,0.017
25/05/2022,15:48:29,0.819,2.0,7.347,0.014
25/05/2022,15:49:29,0.675,2.0,7.36,0.013
25/05/2022,15:50:37,0.638,1.0,7.372,0.012
25/05/2022,15:51:29,0.771,2.0,7.382,0.01
25/05/2022,15:52:29,0.616,1.0,7.393,0.011
25/05/2022,15:53:29,0.605,1.0,7.403,0.01
25/05/2022,15:54:29,0.683,2.0,7.415,0.012
25/05/2022,15:55:29,0.625,1.0,7.426,0.011
25/05/2022,15:56:29,0.605,1.0,7.436,0.01
25/05/2022,15:57:29,0.662,2.0,7.446,0.01
25/05/2022,15:58:29,0.560,1.0,7.456,0.01
25/05/2022,15:59:29,0.526,1.0,7.465,0.009
25/05/2022,16:00:29,0.506,1.0,7.474,0.009
25/05/2022,16:01:29,0.473,1.0,7.482,0.008
25/05/2022,16:02:29,0.434,1.0,7.49,0.008
25/05/2022,16:03:37,0.438,1.0,7.498,0.008
25/05/2022,16:05:29,0.467,1.0,7.512,0.014
25/05/2022,16:06:38,0.457,1.0,7.521,0.009
25/05/2022,16:07:29,0.475,1.0,7.527,0.006
25/05/2022,16:08:29,0.500,1.0,7.536,0.009
25/05/2022,16:09:29,0.504,1.0,7.544,0.008
25/05/2022,16:10:29,0.524,1.0,7.553,0.009
25/05/2022,16:11:29,0.523,1.0,7.561,0.008
25/05/2022,16:12:29,0.502,1.0,7.57,0.009
25/05/2022,16:13:29,0.470,1.0,7.578,0.008
25/05/2022,16:14:29,0.441,1.0,7.586,0.008
25/05/2022,16:15:29,0.411,1.0,7.593,0.007
25/05/2022,16:16:37,0.382,1.0,7.6,0.007
25/05/2022,16:18:30,0.341,1.0,7.612,0.012
25/05/2022,16:19:29,0.311,1.0,7.617,0.005
25/05/2022,16:20:29,0.297,1.0,7.622,0.005
25/05/2022,16:21:29,0.294,1.0,7.627,0.005
25/05/2022,16:22:37,0.269,1.0,7.633,0.006
25/05/2022,16:24:29,0.196,0.0,7.64,0.007
25/05/2022,16:25:29,0.158,0.0,7.643,0.003
25/05/2022,16:26:29,0.135,0.0,7.645,0.002
25/05/2022,16:27:29,0.121,0.0,7.647,0.002
25/05/2022,16:28:29,0.104,0.0,7.649,0.002
25/05/2022,16:29:29,0.090,0.0,7.651,0.002
25/05/2022,16:30:29,0.093,0.0,7.652,0.001
25/05/2022,16:31:29,0.106,0.0,7.654,0.002
25/05/2022,16:32:29,0.124,0.0,7.656,0.002
25/05/2022,16:33:29,0.148,0.0,7.658,0.002
25/05/2022,16:34:29,0.177,0.0,7.661,0.003
25/05/2022,16:35:30,0.208,0.0,7.664,0.003
25/05/2022,16:36:30,0.229,1.0,7.668,0.004
25/05/2022,16:37:29,0.244,1.0,7.671,0.003
25/05/2022,16:38:29,0.257,1.0,7.676,0.005
25/05/2022,16:39:29,0.272,1.0,7.68,0.004
25/05/2022,16:40:29,0.295,1.0,7.685,0.005
25/05/2022,16:41:31,0.322,1.0,7.69,0.005
25/05/2022,16:42:30,0.418,1.0,7.696,0.006
25/05/2022,16:43:29,0.369,1.0,7.702,0.006
25/05/2022,16:44:29,0.376,1.0,7.708,0.006
25/05/2022,16:45:29,0.369,1.0,7.714,0.006
25/05/2022,16:46:29,0.346,1.0,7.72,0.006
25/05/2022,16:47:29,0.317,1.0,7.726,0.006
25/05/2022,16:48:29,0.291,1.0,7.731,0.005
25/05/2022,16:49:29,0.267,1.0,7.735,0.004
25/05/2022,16:50:29,0.251,1.0,7.74,0.005
25/05/2022,16:51:29,0.218,1.0,7.744,0.004
25/05/2022,16:52:29,0.165,0.0,7.747,0.003
25/05/2022,16:53:29,0.130,0.0,7.749,0.002
25/05/2022,16:54:30,0.117,0.0,7.752,0.003
25/05/2022,16:55:29,0.119,0.0,7.753,0.001
25/05/2022,16:56:37,0.132,0.0,7.756,0.003
25/05/2022,16:58:30,0.176,0.0,7.761,0.005
25/05/2022,16:59:37,0.190,0.0,7.764,0.003
25/05/2022,17:01:30,0.183,0.0,7.77,0.006
25/05/2022,17:02:29,0.176,0.0,7.773,0.003
25/05/2022,17:03:31,0.181,0.0,7.776,0.003
25/05/2022,17:04:29,0.196,0.0,7.779,0.003
25/05/2022,17:05:29,0.219,1.0,7.782,0.003
25/05/2022,17:06:29,0.243,1.0,7.786,0.004
25/05/2022,17:07:29,0.262,1.0,7.791,0.005
25/05/2022,17:08:29,0.282,1.0,7.795,0.004
25/05/2022,17:09:29,0.307,1.0,7.8,0.005
25/05/2022,17:10:29,0.310,1.0,7.805,0.005
25/05/2022,17:11:29,0.280,1.0,7.81,0.005
25/05/2022,17:12:37,0.295,1.0,7.816,0.006
25/05/2022,17:13:28,0.270,1.0,7.819,0.003
25/05/2022,17:14:29,0.254,1.0,7.824,0.005
25/05/2022,17:15:29,0.239,1.0,7.828,0.004
25/05/2022,17:16:29,0.220,1.0,7.832,0.004
25/05/2022,17:17:29,0.204,0.0,7.835,0.003
25/05/2022,17:18:29,0.184,0.0,7.839,0.004
25/05/2022,17:19:29,0.165,0.0,7.842,0.003
25/05/2022,17:20:30,0.158,0.0,7.844,0.002
25/05/2022,17:21:29,0.153,0.0,7.847,0.003
25/05/2022,17:22:29,0.144,0.0,7.849,0.002
25/05/2022,17:23:30,0.136,0.0,7.852,0.003
25/05/2022,17:24:29,0.128,0.0,7.854,0.002
25/05/2022,17:25:29,0.123,0.0,7.856,0.002
25/05/2022,17:26:29,0.120,0.0,7.858,0.002
25/05/2022,17:27:30,0.119,0.0,7.86,0.002
25/05/2022,17:28:29,0.122,0.0,7.862,0.002
25/05/2022,17:29:29,0.128,0.0,7.864,0.002
25/05/2022,17:30:37,0.136,0.0,7.866,0.002
25/05/2022,17:32:30,0.134,0.0,7.871,0.005
25/05/2022,17:33:29,0.127,0.0,7.873,0.002
25/05/2022,17:34:29,0.117,0.0,7.875,0.002
25/05/2022,17:35:29,0.109,0.0,7.877,0.002
25/05/2022,17:36:29,0.102,0.0,7.879,0.002
25/05/2022,17:37:29,0.099,0.0,7.88,0.001
25/05/2022,17:38:30,0.108,0.0,7.882,0.002
25/05/2022,17:39:29,0.122,0.0,7.884,0.002
25/05/2022,17:40:29,0.139,0.0,7.886,0.002
25/05/2022,17:41:29,0.143,0.0,7.888,0.002
25/05/2022,17:42:29,0.143,0.0,7.891,0.003
25/05/2022,17:43:38,0.139,0.0,7.893,0.002
25/05/2022,17:45:29,0.123,0.0,7.898,0.005
25/05/2022,17:46:29,0.115,0.0,7.9,0.002
25/05/2022,17:47:29,0.112,0.0,7.901,0.001
25/05/2022,17:48:29,0.113,0.0,7.903,0.002
25/05/2022,17:49:29,0.114,0.0,7.905,0.002
25/05/2022,17:50:30,0.107,0.0,7.907,0.002
25/05/2022,17:51:29,0.093,0.0,7.909,0.002
25/05/2022,17:52:29,0.083,0.0,7.91,0.001
25/05/2022,17:53:29,0.077,0.0,7.911,0.001
25/05/2022,17:54:30,0.074,0.0,7.913,0.002
25/05/2022,17:55:29,0.066,0.0,7.914,0.001
25/05/2022,17:56:29,0.061,0.0,7.915,0.001
25/05/2022,17:57:29,0.065,0.0,7.916,0.001
25/05/2022,17:58:29,0.069,0.0,7.917,0.001
25/05/2022,17:59:30,0.072,0.0,7.918,0.001
25/05/2022,18:00:29,0.076,0.0,7.919,0.001
25/05/2022,18:01:30,0.085,0.0,7.921,0.002
25/05/2022,18:02:38,0.092,0.0,7.922,0.001
25/05/2022,18:04:30,0.084,0.0,7.925,0.003
25/05/2022,18:05:38,0.080,0.0,7.927,0.002
25/05/2022,18:07:29,0.089,0.0,7.929,0.002
25/05/2022,18:08:29,0.094,0.0,7.931,0.002
25/05/2022,18:09:29,0.094,0.0,7.932,0.001
25/05/2022,18:10:29,0.092,0.0,7.934,0.002
25/05/2022,18:11:29,0.090,0.0,7.936,0.002
25/05/2022,18:12:29,0.086,0.0,7.937,0.001
25/05/2022,18:13:29,0.083,0.0,7.938,0.001
25/05/2022,18:14:29,0.080,0.0,7.94,0.002
25/05/2022,18:15:31,0.077,0.0,7.941,0.001
25/05/2022,18:16:29,0.071,0.0,7.942,0.001
25/05/2022,18:17:29,0.068,0.0,7.943,0.001
25/05/2022,18:18:38,0.066,0.0,7.945,0.002
25/05/2022,18:20:29,0.064,0.0,7.947,0.002
25/05/2022,18:21:30,0.068,0.0,7.948,0.001
25/05/2022,18:22:29,0.068,0.0,7.949,0.001
25/05/2022,18:23:29,0.068,0.0,7.95,0.001
25/05/2022,18:24:29,0.069,0.0,7.951,0.001
25/05/2022,18:25:30,0.069,0.0,7.952,0.001
25/05/2022,18:26:29,0.068,0.0,7.954,0.002
25/05/2022,18:27:29,0.068,0.0,7.955,0.001
25/05/2022,18:28:37,0.067,0.0,7.956,0.001
25/05/2022,18:29:28,0.067,0.0,7.957,0.001
25/05/2022,18:30:30,0.066,0.0,7.958,0.001
25/05/2022,18:31:29,0.064,0.0,7.959,0.001
25/05/2022,18:32:29,0.063,0.0,7.96,0.001
25/05/2022,18:33:29,0.061,0.0,7.961,0.001
25/05/2022,18:34:29,0.061,0.0,7.962,0.001
25/05/2022,18:35:29,0.060,0.0,7.963,0.001
25/05/2022,18:36:29,0.060,0.0,7.964,0.001
25/05/2022,18:37:30,0.058,0.0,7.965,0.001
25/05/2022,18:38:30,0.056,0.0,7.966,0.001
25/05/2022,18:39:29,0.055,0.0,7.967,0.001
25/05/2022,18:40:29,0.055,0.0,7.968,0.001
25/05/2022,18:41:29,0.054,0.0,7.969,0.001
25/05/2022,18:42:29,0.054,0.0,7.97,0.001
25/05/2022,18:43:38,0.052,0.0,7.971,0.001
25/05/2022,18:45:30,0.050,0.0,7.972,0.001
25/05/2022,18:46:29,0.048,0.0,7.973,0.001
25/05/2022,18:47:29,0.047,0.0,7.974,0.001
25/05/2022,18:48:29,0.047,0.0,7.975,0.001
25/05/2022,18:49:29,0.046,0.0,7.976,0.001
25/05/2022,18:50:29,0.044,0.0,7.976,0.0
25/05/2022,18:51:30,0.043,0.0,7.977,0.001
25/05/2022,18:52:30,0.041,0.0,7.978,0.001
25/05/2022,18:53:29,0.041,0.0,7.978,0.0
25/05/2022,18:54:29,0.039,0.0,7.979,0.001
25/05/2022,18:55:30,0.037,0.0,7.98,0.001
25/05/2022,18:56:30,0.035,0.0,7.98,0.0
25/05/2022,18:57:29,0.033,0.0,7.981,0.001
25/05/2022,19:05:41,0.024,0.0,7.985,0.004
25/05/2022,19:07:30,0.023,0.0,7.985,0.0
25/05/2022,19:08:53,0.022,0.0,7.986,0.001
25/05/2022,19:10:29,0.021,0.0,7.986,0.0
25/05/2022,19:11:29,0.020,0.0,7.987,0.001
25/05/2022,19:12:29,0.018,0.0,7.987,0.0
25/05/2022,19:13:30,0.018,0.0,7.987,0.0
25/05/2022,19:14:38,0.017,0.0,7.988,0.001
25/05/2022,19:16:30,0.015,0.0,7.988,0.0
25/05/2022,19:17:30,0.014,0.0,7.988,0.0
25/05/2022,19:18:29,0.014,0.0,7.989,0.001
25/05/2022,19:19:29,0.012,0.0,7.989,0.0
25/05/2022,19:20:30,0.011,0.0,7.989,0.0
25/05/2022,19:21:29,0.009,0.0,7.989,0.0
25/05/2022,19:22:29,0.007,0.0,7.989,0.0
25/05/2022,19:23:29,0.007,0.0,7.99,0.001
25/05/2022,19:24:30,0.006,0.0,7.99,0.0
25/05/2022,19:25:29,0.007,0.0,7.99,0.0
25/05/2022,19:26:30,0.007,0.0,7.99,0.0
25/05/2022,19:27:29,0.007,0.0,7.99,0.0
25/05/2022,19:28:29,0.008,0.0,7.99,0.0
25/05/2022,19:29:29,0.008,0.0,7.99,0.0
25/05/2022,19:30:29,0.008,0.0,7.99,0.0
25/05/2022,19:31:30,0.007,0.0,7.99,0.0
25/05/2022,19:32:30,0.008,0.0,7.991,0.001
25/05/2022,19:33:37,0.009,0.0,7.991,0.0
25/05/2022,19:35:30,0.007,0.0,7.991,0.0
25/05/2022,19:36:29,0.009,0.0,7.991,0.0
25/05/2022,19:37:29,0.008,0.0,7.991,0.0
25/05/2022,19:38:29,0.007,0.0,7.991,0.0
25/05/2022,19:39:29,0.007,0.0,7.991,0.0
25/05/2022,19:40:32,0.007,0.0,7.992,0.001
25/05/2022,19:41:29,0.006,0.0,7.992,0.0
25/05/2022,19:42:29,0.006,0.0,7.992,0.0
25/05/2022,19:43:29,0.006,0.0,7.992,0.0
25/05/2022,19:44:42,0.006,0.0,7.992,0.0
25/05/2022,19:46:30,0.006,0.0,7.992,0.0
25/05/2022,19:47:29,0.005,0.0,7.992,0.0
25/05/2022,19:48:38,0.004,0.0,7.992,0.0
25/05/2022,19:49:29,0.004,0.0,7.992,0.0
25/05/2022,19:50:30,0.003,0.0,7.992,0.0
25/05/2022,19:51:29,0.003,0.0,7.992,0.0
25/05/2022,19:52:29,0.003,0.0,7.992,0.0
25/05/2022,19:53:30,0.002,0.0,7.992,0.0
25/05/2022,19:54:30,0.002,0.0,7.992,0.0
25/05/2022,19:55:30,0.003,0.0,7.992,0.0
25/05/2022,19:56:29,0.002,0.0,7.992,0.0
25/05/2022,19:57:29,0.002,0.0,7.992,0.0
25/05/2022,19:58:29,0.002,0.0,7.992,0.0
25/05/2022,19:59:29,0.001,0.0,7.992,0.0
25/05/2022,20:00:29,0.001,0.0,7.992,0.0
25/05/2022,20:01:29,0.001,0.0,7.992,0.0
25/05/2022,20:02:30,0.001,0.0,7.992,0.0
25/05/2022,20:03:30,0.001,0.0,7.992,0.0
25/05/2022,20:04:29,0.001,0.0,7.992,0.0
25/05/2022,20:05:29,0.000,0.0,7.992,0.0
25/05/2022,20:06:29,0.000,0.0,7.992,0.0
25/05/2022,20:07:38,0.001,0.0,7.992,0.0
25/05/2022,20:08:30,-0.000,0.0,7.992,0.0
25/05/2022,20:09:30,0.001,0.0,7.992,0.0
25/05/2022,20:10:29,-0.000,0.0,7.992,0.0
25/05/2022,20:11:30,-0.000,0.0,7.992,0.0
25/05/2022,20:12:29,-0.000,0.0,7.992,0.0
25/05/2022,20:13:30,0.001,0.0,7.992,0.0
25/05/2022,20:14:30,-0.001,0.0,7.992,0.0
25/05/2022,20:15:29,-0.001,0.0,7.992,0.0
25/05/2022,20:16:29,-0.001,0.0,7.992,0.0
25/05/2022,20:17:30,-0.001,0.0,7.992,0.0
25/05/2022,20:18:29,-0.001,0.0,7.992,0.0
25/05/2022,20:19:30,-0.000,0.0,7.992,0.0
25/05/2022,20:20:38,-0.002,0.0,7.992,0.0
25/05/2022,20:22:30,-0.001,0.0,7.992,0.0
25/05/2022,20:23:30,-0.001,0.0,7.992,0.0
25/05/2022,20:24:29,-0.002,0.0,7.992,0.0
25/05/2022,20:25:30,-0.001,0.0,7.992,0.0
25/05/2022,20:26:29,-0.001,0.0,7.992,0.0
25/05/2022,20:27:29,-0.002,0.0,7.992,0.0
25/05/2022,20:28:30,-0.002,0.0,7.992,0.0
25/05/2022,20:29:29,-0.002,0.0,7.992,0.0
25/05/2022,20:30:30,-0.002,0.0,7.992,0.0
25/05/2022,20:31:29,-0.003,0.0,7.992,0.0
25/05/2022,20:32:29,-0.001,0.0,7.992,0.0
25/05/2022,20:33:29,-0.002,0.0,7.992,0.0
25/05/2022,20:34:29,-0.002,0.0,7.992,0.0
25/05/2022,20:35:30,-0.003,0.0,7.992,0.0
25/05/2022,20:36:37,-0.002,0.0,7.992,0.0
25/05/2022,20:38:30,-0.002,0.0,7.992,0.0
25/05/2022,20:39:38,-0.002,0.0,7.992,0.0
25/05/2022,20:40:30,-0.002,0.0,7.992,0.0
25/05/2022,20:41:29,-0.002,0.0,7.992,0.0
25/05/2022,20:42:29,-0.001,0.0,7.992,0.0
25/05/2022,20:43:29,-0.001,0.0,7.992,0.0
25/05/2022,20:44:30,-0.001,0.0,7.992,0.0
25/05/2022,20:45:29,-0.002,0.0,7.992,0.0
25/05/2022,20:46:29,-0.002,0.0,7.992,0.0
25/05/2022,20:47:30,-0.002,0.0,7.992,0.0
25/05/2022,20:48:29,-0.003,0.0,7.992,0.0
25/05/2022,20:49:29,-0.002,0.0,7.992,0.0
25/05/2022,20:50:29,-0.002,0.0,7.992,0.0
25/05/2022,20:51:29,-0.002,0.0,7.992,0.0
25/05/2022,20:52:36,-0.002,0.0,7.992,0.0
25/05/2022,20:53:29,-0.002,0.0,7.992,0.0
25/05/2022,20:54:29,-0.002,0.0,7.992,0.0
25/05/2022,20:55:29,-0.002,0.0,7.992,0.0
25/05/2022,20:56:29,-0.002,0.0,7.992,0.0
25/05/2022,20:57:29,-0.002,0.0,7.992,0.0
25/05/2022,20:58:29,-0.002,0.0,7.992,0.0
25/05/2022,20:59:30,-0.001,0.0,7.992,0.0
25/05/2022,21:00:29,-0.002,0.0,7.992,0.0
25/05/2022,21:01:36,-0.002,0.0,7.992,0.0
25/05/2022,21:02:30,-0.002,0.0,7.992,0.0
25/05/2022,21:03:29,-0.003,0.0,7.992,0.0
25/05/2022,21:04:29,-0.003,0.0,7.992,0.0
25/05/2022,21:05:37,-0.002,0.0,7.992,0.0
25/05/2022,21:06:29,-0.001,0.0,7.992,0.0
25/05/2022,21:07:29,-0.002,0.0,7.992,0.0
25/05/2022,21:08:30,-0.002,0.0,7.992,0.0
25/05/2022,21:09:29,-0.001,0.0,7.992,0.0
25/05/2022,21:10:29,-0.001,0.0,7.992,0.0
25/05/2022,21:11:29,-0.002,0.0,7.992,0.0
25/05/2022,21:12:29,-0.002,0.0,7.992,0.0
25/05/2022,21:13:30,-0.002,0.0,7.992,0.0
25/05/2022,21:14:29,-0.002,0.0,7.992,0.0
25/05/2022,21:15:30,-0.002,0.0,7.992,0.0
25/05/2022,21:16:30,-0.002,0.0,7.992,0.0
25/05/2022,21:17:30,-0.002,0.0,7.992,0.0
25/05/2022,21:18:29,-0.002,0.0,7.992,0.0
25/05/2022,21:19:30,-0.003,0.0,7.992,0.0
25/05/2022,21:20:38,-0.003,0.0,7.992,0.0
25/05/2022,21:21:29,-0.002,0.0,7.992,0.0
25/05/2022,21:22:29,-0.003,0.0,7.992,0.0
25/05/2022,21:23:38,-0.001,0.0,7.992,0.0
25/05/2022,21:25:30,-0.001,0.0,7.992,0.0
25/05/2022,21:26:30,-0.001,0.0,7.992,0.0
25/05/2022,21:27:29,-0.002,0.0,7.992,0.0
25/05/2022,21:28:29,-0.001,0.0,7.992,0.0
25/05/2022,21:29:29,-0.002,0.0,7.992,0.0
25/05/2022,21:30:30,-0.002,0.0,7.992,0.0
25/05/2022,21:31:29,-0.002,0.0,7.992,0.0
25/05/2022,21:32:30,-0.002,0.0,7.992,0.0
25/05/2022,21:33:29,-0.001,0.0,7.992,0.0
25/05/2022,21:34:31,-0.001,0.0,7.992,0.0
25/05/2022,21:35:29,-0.001,0.0,7.992,0.0
25/05/2022,21:36:29,-0.001,0.0,7.992,0.0
25/05/2022,21:37:29,-0.002,0.0,7.992,0.0
25/05/2022,21:38:30,-0.001,0.0,7.992,0.0
25/05/2022,21:39:38,-0.002,0.0,7.992,0.0
25/05/2022,21:40:29,-0.000,0.0,7.992,0.0
25/05/2022,21:41:30,-0.002,0.0,7.992,0.0
25/05/2022,21:42:29,-0.002,0.0,7.992,0.0
25/05/2022,21:43:30,-0.001,0.0,7.992,0.0
25/05/2022,21:44:30,-0.002,0.0,7.992,0.0
25/05/2022,21:45:30,-0.002,0.0,7.992,0.0
25/05/2022,21:46:30,-0.001,0.0,7.992,0.0
25/05/2022,21:47:29,-0.001,0.0,7.992,0.0
25/05/2022,21:48:29,-0.001,0.0,7.992,0.0
25/05/2022,21:49:38,-0.001,0.0,7.992,0.0
25/05/2022,21:50:29,-0.001,0.0,7.992,0.0
25/05/2022,21:51:30,-0.002,0.0,7.992,0.0
25/05/2022,21:52:38,-0.000,0.0,7.992,0.0
25/05/2022,21:53:29,-0.002,0.0,7.992,0.0
25/05/2022,21:54:30,-0.000,0.0,7.992,0.0
25/05/2022,21:55:29,-0.001,0.0,7.992,0.0
25/05/2022,21:56:29,-0.002,0.0,7.992,0.0